User: anonymous
Location: Caltech
(34.1382°N, 118.1253°W)
Time: 10:39:25
(UTC-07:00)
Language:

Cosmos 1758 Rocket - Orbit

View from above orbital plane
View from above orbital plane
View from above satellite
View from above satellite

Ground track
Ground track

The orbit data is extracted from the following two-line orbital elements,

1 16792U 86046B   14206.13569666  .00000162  00000-0  17114-4 0  5223
2 16792 082.4844 117.6937 0025057 172.4952 305.4550 14.82586331518074
Epoch (UTC): 25 July 2014 03:15:24
Eccentricity: 0.0025057
inclination: 82.4844°
perigee height: 603 km
apogee height: 639 km
right ascension of ascending node: 117.6937°
argument of perigee: 172.4952°
revolutions per day: 14.82586331
mean anomaly at epoch: 305.4550°
orbit number at epoch: 51807

The dashed part of the orbit path shows where the satellite is in the earth's shadow,  

DLR